Temperature
16 17 17 17 14 12 14 14 15 16 16 16 16 16 15 14 15 15 13 13 13 13 13 13 13 13 14 14 14 14 14 14 14 14 14 14 14 14 14 14 14 14 14 14 14 14 14 14 14
16 16 17 16 12 13 14 14 15 16 16 16 16 15 13 12 13 13 13 13 13 13 13 13 13 13 13 13 13 13 14 13 14 14 14 14 14 14 14 14 14 14 14 14 14 14 14 14 14
16 16 16 12 12 13 14 15 14 15 16 16 14 13 13 12 12 13 13 13 13 13 13 13 13 13 13 13 13 13 13 13 13 13 14 13 14 14 13 14 14 14 13 14 13 13 13 13 13
16 16 15 11 13 13 14 15 14 14 15 15 14 11 11 12 12 13 13 13 13 13 13 13 13 13 13 13 13 13 13 13 13 13 13 13 13 13 13 13 13 13 13 13 13 13 13 13 13
15 15 12 11 12 13 13 14 15 14 14 14 13 10 11 11 12 12 12 12 12 12 12 12 12 12 12 12 13 13 13 13 13 13 13 13 13 13 13 13 13 13 13 13 13 13 13 13 13
15 12 11 11 12 13 13 15 14 13 13 13 12 10 10 11 12 12 12 12 12 12 12 12 12 12 12 12 12 12 12 12 12 13 13 13 13 13 13 13 13 13 13 13 13 13 13 12 12
13 10 11 11 12 13 14 15 14 12 12 12 13 10 9 10 11 11 11 11 12 12 12 12 12 12 12 12 12 12 12 12 12 12 13 13 13 13 12 12 12 12 12 13 13 12 12 12 12
14 10 11 11 12 13 14 14 14 13 12 12 13 10 9 10 10 11 11 11 11 11 11 11 11 11 11 12 12 12 12 12 12 12 12 12 12 12 12 12 12 12 12 12 12 12 12 12 12
13 10 10 11 12 12 13 13 13 12 12 11 11 11 11 11 10 10 10 10 11 11 11 11 11 11 11 11 11 11 11 12 12 12 12 12 12 12 12 12 12 12 12 12 12 12 11 11 12
12 9 10 11 12 12 12 12 12 11 10 9 10 10 11 10 10 10 10 10 10 10 10 10 11 11 11 11 11 11 11 11 11 11 11 11 11 11 11 11 11 11 11 11 11 11 11 11 11
10 9 10 11 12 12 11 11 11 10 9 9 10 10 10 9 10 10 10 10 10 10 10 10 10 10 10 11 11 11 11 11 11 11 11 11 11 11 11 11 11 11 11 11 11 11 11 11 11
9 9 10 10 11 11 11 10 10 9 10 11 11 11 10 9 9 10 10 9 9 10 10 10 10 10 10 10 10 10 10 10 11 11 10 11 10 10 10 10 10 10 10 10 10 10 10 10 10
9 9 10 10 10 10 10 9 9 8 10 10 10 10 10 10 9 9 9 9 9 9 9 9 9 10 10 10 10 10 10 10 10 10 10 10 10 10 10 10 10 10 10 10 10 10 10 10 10
9 8 9 9 9 9 8 8 8 8 9 9 9 9 9 9 9 9 9 9 8 9 9 9 9 9 9 9 10 10 10 9 10 10 10 10 10 10 10 10 9 10 10 10 10 10 10 10 10
9 8 8 8 8 8 8 7 6 8 8 8 8 8 8 8 8 8 8 9 8 8 8 8 8 8 9 9 9 9 9 9 9 9 9 9 9 9 9 9 9 9 9 9 9 9 9 9 9
8 7 7 7 8 8 7 7 7 7 7 6 7 7 7 7 8 8 8 8 8 8 8 8 8 8 8 8 8 8 8 8 8 9 9 9 9 9 9 9 9 9 9 9 9 9 9 9 9
6 6 6 7 7 6 6 6 6 6 6 5 5 6 6 6 7 7 7 7 7 7 7 7 7 7 7 7 7 7 8 8 8 8 8 8 8 8 8 8 8 8 8 8 8 8 8 8 8
5 5 6 6 6 6 5 5 5 5 5 5 5 5 5 5 6 7 7 7 7 7 6 6 6 6 6 6 6 7 7 7 7 7 7 7 7 7 7 8 8 8 8 8 8 8 8 8 8
5 6 6 6 6 5 4 4 4 4 4 3 4 4 4 5 5 6 6 6 6 6 6 6 6 6 6 6 6 6 6 6 6 6 6 6 6 6 7 7 7 7 7 7 7 7 7 7 7
5 5 5 5 6 5 4 4 4 3 3 3 3 3 4 4 4 5 5 5 6 6 5 5 5 5 5 5 5 6 6 5 5 6 6 6 6 6 6 6 6 6 7 7 7 7 7 7 6
5 4 4 5 5 4 4 4 3 3 3 3 4 4 4 3 4 4 4 4 5 5 5 5 5 5 5 5 5 5 5 5 5 5 5 5 5 5 5 5 5 6 6 6 6 6 6 6 6
4 5 5 4 4 3 3 3 3 2 2 2 2 3 3 3 3 3 4 4 4 4 5 4 4 4 4 4 4 4 5 5 5 5 5 5 4 5 5 5 5 5 5 5 5 5 5 5 5
4 4 4 4 3 2 2 2 2 2 2 2 1 2 2 3 3 3 3 4 4 4 4 4 4 4 4 4 4 4 4 4 4 4 4 4 4 4 4 4 4 4 4 4 4 4 5 5 5
3 3 2 2 1 2 2 2 2 1 2 2 1 2 2 2 3 3 3 3 3 3 3 3 3 3 3 3 3 3 3 3 4 4 4 4 4 4 4 4 4 4 4 4 4 4 4 4 4
2 2 1 2 1 1 1 1 1 1 1 1 1 2 2 2 2 2 2 2 2 2 2 3 3 3 3 3 3 3 3 3 3 3 3 3 3 3 3 3 3 3 3 3 3 3 3 3 3
1 1 1 2 1 1 0 0 1 0 0 1 1 1 2 2 1 1 2 2 2 2 2 2 2 2 2 2 2 2 2 2 2 2 3 3 3 3 3 3 3 3 3 3 3 3 3 3 2
1 0 1 0 -0 -0 0 -1 0 -0 -0 -1 -0 0 1 1 1 1 1 1 2 2 2 2 2 2 1 1 2 2 2 2 2 2 2 2 2 2 2 2 2 2 2 2 2 2 2 2 2
1 -0 -1 -0 0 0 0 -0 -0 0 -0 -1 -1 -1 -0 0 0 0 1 1 1 1 1 1 1 1 1 1 1 1 1 1 1 1 1 1 1 1 1 1 1 2 2 2 2 2 1 1 1
-0 -1 -1 -1 -1 -0 -0 0 -0 -1 -1 -1 -2 -1 -1 -0 -0 -0 -0 0 0 0 0 0 0 1 1 0 0 0 0 1 1 1 1 1 1 1 1 1 1 1 1 1 1 1 1 1 1
-2 -2 -2 -1 -2 -2 -1 -1 -1 -2 -2 -2 -2 -1 -1 -1 -1 -1 -1 -1 -0 -0 -0 -0 -0 -0 -0 -0 -0 -0 -0 -0 -0 -0 -0 -0 -0 -0 -0 -0 0 0 0 0 0 0 0 0 -0
Wind_Speed
9 7 2 4 5 3 3 5 3 2 1 1 2 5 7 5 3 5 3 4 7 7 7 9 12 13 14 14 14 14 13 13 13 13 13 13 14 14 14 14 14 15 15 15 15 15 15 15 16
5 2 4 5 5 2 5 5 5 4 5 4 3 5 6 4 3 6 3 4 8 8 9 10 13 13 14 14 14 14 13 13 13 13 13 13 13 14 14 14 14 14 15 15 15 15 15 15 15
4 1 4 4 4 6 6 4 7 4 2 3 3 4 4 4 3 4 3 6 8 8 9 10 13 13 14 14 14 13 13 13 13 12 13 13 13 14 14 14 14 14 14 14 14 14 14 14 14
3 4 4 3 5 6 6 4 4 4 1 2 4 4 2 2 3 4 6 8 9 8 9 11 13 13 14 14 13 13 13 13 12 12 13 13 13 14 14 13 14 14 14 14 13 14 14 14 14
4 4 3 2 6 4 3 3 3 3 2 1 5 5 2 3 3 7 8 8 9 7 8 10 13 13 13 13 13 13 13 12 12 12 12 13 13 13 13 13 13 13 13 13 13 13 13 14 14
4 4 3 5 7 4 3 3 2 2 2 2 5 5 2 1 5 7 8 8 8 8 8 9 11 12 12 12 13 13 12 12 12 12 12 12 12 13 13 13 13 13 13 13 13 13 13 13 13
4 4 5 5 4 4 4 2 3 4 3 2 4 6 2 1 3 6 7 8 8 8 8 8 9 10 11 11 12 12 12 11 11 11 11 12 12 12 12 12 13 12 12 12 12 12 13 13 13
5 4 3 4 5 5 2 2 2 4 3 1 4 7 5 4 4 7 7 7 7 7 7 7 8 8 9 9 10 11 11 11 11 11 11 11 12 11 11 11 12 12 11 12 12 12 12 13 13
4 2 5 6 6 4 1 2 1 2 5 3 2 2 3 9 8 9 7 5 5 5 4 5 6 7 8 8 9 10 10 10 10 10 11 10 10 10 10 11 11 11 11 11 11 12 12 12 12
4 5 8 4 3 3 1 1 2 3 3 2 3 5 7 10 10 10 8 7 6 5 4 4 5 6 6 7 8 8 9 9 9 9 9 9 9 8 8 10 10 10 10 10 11 11 11 11 11
4 6 5 3 2 1 0 1 1 5 2 4 6 7 9 9 8 9 8 7 6 6 5 3 4 5 6 5 6 6 7 8 8 9 9 9 9 8 8 8 9 9 9 9 9 10 9 9 9
3 3 3 2 1 1 1 1 1 2 4 3 7 11 11 10 9 9 8 6 5 5 5 4 5 5 6 6 6 6 6 6 7 7 8 8 7 7 6 6 7 7 7 7 8 7 8 9 9
4 2 2 2 0 0 1 1 2 2 1 4 7 9 10 9 8 6 5 5 5 5 5 4 5 5 6 6 6 6 6 6 7 7 7 8 6 5 5 5 6 6 6 6 6 6 7 7 7
3 3 2 2 2 1 2 2 1 4 3 5 7 7 8 9 8 5 5 5 5 5 5 5 5 6 6 6 5 6 6 7 7 7 7 8 7 6 5 5 5 5 6 6 6 6 5 5 6
2 1 3 4 4 3 2 4 5 4 5 5 5 5 6 7 6 7 7 6 6 5 5 5 5 6 6 6 6 6 7 7 7 6 7 8 7 6 6 4 4 4 5 6 6 6 7 5 5
1 1 4 4 3 3 5 8 4 3 6 5 5 4 5 6 6 6 6 5 5 5 6 6 5 5 6 6 6 6 7 8 7 7 7 7 7 7 6 5 4 5 5 5 4 4 4 4 3
1 4 5 4 3 3 5 6 4 3 6 5 5 5 5 5 5 5 6 6 6 6 6 6 5 5 5 6 7 7 7 7 6 7 7 7 7 7 6 5 5 6 6 5 4 3 3 3 3
6 5 4 5 3 4 5 7 4 2 5 5 5 5 5 5 6 5 6 6 6 6 6 6 6 5 5 5 5 5 5 5 6 6 6 6 6 7 7 6 6 6 5 4 4 3 3 3 2
4 5 5 5 3 4 7 8 7 4 3 4 5 5 5 6 3 4 5 5 6 6 6 6 6 5 5 4 4 4 3 3 3 5 6 6 6 6 6 5 5 5 4 3 4 3 4 3 2
4 5 4 3 1 3 4 8 7 5 6 6 7 7 6 4 3 4 5 5 6 7 6 6 6 6 5 4 3 2 3 2 3 4 5 6 6 5 5 5 4 4 4 4 4 4 2 2 2
6 7 6 4 2 1 2 6 5 4 3 4 4 5 4 6 6 6 6 6 6 6 7 6 6 6 5 4 4 4 3 3 2 2 2 4 5 5 5 5 5 4 3 3 3 3 3 2 1
8 5 5 5 2 3 2 5 6 4 3 4 5 5 5 5 6 5 6 6 6 6 5 5 5 5 4 5 5 6 4 3 2 2 2 3 4 5 4 4 4 4 3 3 2 3 2 2 1
5 2 4 4 4 3 2 4 7 1 4 5 6 6 6 6 6 7 7 6 5 5 5 5 5 5 4 5 5 6 4 3 2 3 3 2 3 4 4 4 4 3 3 3 2 2 2 2 1
1 2 3 3 2 5 7 6 6 4 5 4 5 5 5 5 5 5 4 4 4 4 5 4 5 4 4 5 5 5 5 4 4 3 3 2 1 2 2 3 3 3 2 2 2 2 2 1 1
3 4 2 1 2 7 3 5 7 5 4 5 5 5 4 5 5 5 5 5 5 5 5 5 5 4 4 5 5 5 5 6 5 4 3 3 1 1 0 1 1 1 1 1 2 2 1 1 1
4 6 6 5 5 4 2 6 5 4 2 2 1 1 1 2 3 4 5 5 5 5 5 5 6 5 5 5 4 4 4 4 3 4 3 3 2 2 1 0 1 1 1 1 1 1 1 1 1
3 3 3 4 1 2 4 4 5 2 3 2 2 2 0 1 3 3 4 4 4 5 5 6 6 5 5 5 4 4 4 3 3 3 3 2 1 1 1 1 0 1 1 0 0 1 1 1 2
3 4 3 4 4 5 5 4 4 3 3 2 1 1 1 0 1 2 2 3 3 3 3 4 4 5 4 5 4 4 4 3 3 3 3 2 1 1 1 1 0 0 1 1 0 1 1 1 2
1 2 2 3 3 4 4 5 3 5 4 3 2 1 1 0 1 2 2 1 2 2 2 3 3 3 3 4 4 3 3 3 3 3 3 2 2 1 1 1 1 1 1 1 1 2 2 2 2
2 3 4 4 4 4 3 5 3 2 1 0 1 2 2 1 0 1 1 1 1 2 2 3 3 3 3 4 4 4 3 3 3 3 2 2 2 2 2 2 2 2 2 2 2 2 2 3 4
Wind_Direction
326 336 59 60 62 60 233 243 216 179 147 172 98 106 118 119 140 154 140 134 129 138 140 140 132 128 124 120 114 109 104 99 96 94 93 92 91 89 89 86 83 82 80 81 80 78 76 74 74
335 358 57 65 111 185 254 240 214 215 179 146 86 86 94 95 76 111 128 134 128 130 129 133 129 126 125 121 116 112 106 102 98 96 95 95 94 91 89 87 85 83 82 81 80 79 76 74 73
331 47 87 92 150 193 219 227 203 206 163 130 93 60 110 132 130 148 158 138 124 120 125 130 128 126 125 122 118 114 109 105 101 99 98 97 96 93 91 88 86 86 84 82 81 79 77 73 72
54 53 61 103 212 224 210 215 178 145 62 73 118 90 68 49 152 155 136 124 121 119 121 128 127 124 123 122 119 115 111 108 105 102 99 97 96 95 92 89 87 87 86 85 82 79 75 72 73
64 87 101 215 234 246 235 227 169 141 154 113 120 124 112 355 86 119 125 118 119 117 117 126 127 123 121 120 119 116 113 110 108 105 101 99 97 95 93 89 87 87 87 86 83 79 76 74 75
68 85 142 215 233 245 252 222 163 141 161 123 119 127 152 71 105 125 126 120 115 112 108 116 122 120 121 121 118 116 114 112 108 106 103 101 98 95 94 92 90 87 86 86 85 80 78 77 75
123 131 190 204 218 244 240 196 171 172 167 189 143 130 153 177 136 126 122 115 109 104 100 98 110 116 117 116 118 119 117 115 109 105 104 103 100 96 94 93 91 88 86 85 83 81 78 77 76
139 137 203 211 206 235 234 167 176 156 172 109 122 143 181 197 151 120 110 108 105 100 98 100 99 105 109 114 115 115 113 112 107 103 101 99 97 97 95 92 91 89 86 85 83 81 79 76 74
116 137 214 211 199 221 212 143 91 84 108 72 53 129 160 141 131 120 111 101 106 105 96 102 103 101 106 110 112 110 110 107 103 99 99 94 88 88 90 91 91 87 84 83 82 80 79 76 72
130 194 219 218 204 190 130 134 158 106 89 87 47 50 106 129 136 139 143 143 142 138 122 102 105 110 108 109 106 103 103 103 99 97 95 89 87 85 89 92 91 86 81 80 78 79 78 73 69
165 200 209 240 255 233 266 47 97 141 175 196 176 153 141 142 147 153 157 157 156 150 135 122 115 117 112 106 106 102 102 100 99 99 95 94 89 83 80 80 79 78 75 70 70 71 69 69 69
180 226 204 229 260 245 244 179 112 164 216 197 165 153 152 157 166 169 165 161 151 143 143 135 124 119 115 112 106 104 100 93 93 96 99 98 90 82 79 76 77 74 70 69 66 67 67 69 71
210 214 214 216 53 119 88 215 191 237 215 110 124 143 158 166 170 166 152 145 144 150 149 146 132 127 123 114 112 107 101 97 97 93 97 103 97 88 83 79 78 74 71 71 70 68 69 68 69
196 191 235 249 219 212 177 255 208 240 147 122 138 160 169 172 167 156 151 156 163 164 159 150 138 133 126 123 117 113 108 106 98 90 89 98 99 94 90 80 73 69 70 74 77 76 72 70 74
154 159 290 252 223 204 150 282 237 223 146 144 158 168 170 173 165 172 176 173 172 166 155 150 143 130 130 127 120 114 111 105 94 89 91 90 92 94 90 84 73 67 74 77 77 74 75 71 65
105 175 251 254 197 184 158 244 253 191 160 177 183 179 178 183 181 183 175 167 163 155 151 148 141 130 128 123 119 116 111 103 95 95 91 88 88 90 90 82 71 68 75 75 78 76 82 70 65
193 218 233 261 202 160 177 237 248 186 171 191 196 194 189 190 192 189 177 169 162 157 151 145 134 133 129 122 116 111 106 101 97 96 89 85 86 87 85 80 74 80 74 64 74 75 84 83 65
210 210 219 221 215 165 200 236 252 209 186 203 207 201 196 196 205 189 173 166 156 151 149 147 139 131 125 116 106 102 95 91 93 90 87 89 85 88 84 75 73 82 77 71 73 82 70 80 77
186 198 229 236 215 181 217 242 255 240 210 215 217 208 207 214 200 160 160 157 147 145 149 151 144 140 134 136 140 137 138 122 100 91 89 89 85 86 85 80 75 76 82 82 89 90 79 53 57
219 231 242 276 247 200 236 258 256 229 219 212 209 212 211 202 169 162 160 157 156 157 158 154 151 150 151 153 144 140 131 116 108 92 87 86 85 85 86 85 85 80 86 80 81 86 86 61 40
230 222 227 235 320 249 281 289 260 247 224 223 220 217 205 193 188 179 174 174 166 165 168 165 161 155 151 132 119 115 98 84 81 83 88 76 85 82 79 82 86 83 95 101 93 89 92 108 22
233 229 222 215 205 253 197 265 270 238 249 240 239 230 218 204 188 176 176 174 176 176 167 158 158 154 150 142 146 144 144 140 154 144 119 88 84 81 76 81 86 88 87 104 108 86 87 116 111
224 221 212 210 196 249 243 225 275 236 250 250 245 236 222 204 186 182 181 180 175 163 159 157 153 155 153 151 152 155 143 131 118 120 117 106 83 78 74 75 76 82 79 94 100 87 86 103 133
163 70 58 66 114 243 225 203 269 233 229 249 249 242 223 203 191 184 170 152 149 148 150 150 149 154 157 154 155 158 152 142 134 140 147 141 112 79 64 66 68 72 74 94 104 107 110 113 125
91 106 64 335 247 244 202 203 252 259 236 224 233 242 229 199 185 174 167 162 158 157 160 159 158 161 164 159 164 167 162 158 160 165 168 161 151 147 155 66 78 76 64 68 80 107 149 150 155
193 163 172 200 221 260 217 224 251 268 288 263 242 262 207 178 179 178 178 170 168 166 166 168 172 171 170 170 172 165 161 165 165 167 168 177 184 185 167 109 79 60 69 59 67 103 189 170 195
158 201 181 145 145 246 249 271 295 320 0 21 27 25 356 187 180 180 172 167 167 168 175 178 178 177 177 177 169 164 166 169 168 164 160 168 159 152 140 107 84 355 3 4 149 203 231 213 224
159 151 111 144 181 236 265 247 244 255 260 299 339 334 323 2 151 160 168 170 170 172 171 170 174 179 178 172 176 180 178 180 168 160 165 165 152 124 142 140 152 337 320 306 231 228 243 236 249
107 147 152 173 189 191 241 259 232 212 212 214 246 275 305 211 194 180 176 166 157 147 152 164 168 164 168 174 176 173 174 170 162 171 178 173 166 162 185 197 229 251 274 299 254 250 240 239 252
161 175 152 180 238 208 216 263 295 217 212 138 327 342 355 26 43 132 143 129 133 153 166 175 174 172 183 179 172 174 169 161 170 181 187 180 185 192 203 210 225 245 262 258 245 256 263 248 247
Height
1510 1510 1512 1514 1518 1528 1527 1519 1513 1511 1511 1510 1510 1510 1512 1516 1520 1526 1524 1524 1526 1529 1532 1534 1536 1537 1538 1539 1541 1542 1542 1543 1543 1544 1544 1544 1544 1545 1545 1545 1545 1545 1545 1545 1546 1546 1546 1546 1546
1509 1510 1513 1513 1523 1532 1526 1516 1512 1508 1508 1509 1510 1511 1512 1515 1517 1519 1520 1523 1526 1529 1531 1533 1535 1537 1538 1539 1540 1542 1542 1543 1543 1544 1544 1545 1545 1545 1545 1546 1546 1546 1546 1546 1546 1547 1547 1547 1547
1509 1510 1512 1515 1524 1525 1518 1510 1508 1506 1507 1508 1510 1511 1513 1515 1517 1518 1520 1523 1526 1528 1531 1533 1535 1536 1538 1539 1540 1541 1542 1543 1544 1544 1544 1545 1545 1546 1546 1546 1546 1546 1547 1547 1547 1547 1547 1548 1548
1509 1511 1512 1519 1519 1514 1509 1506 1505 1506 1507 1507 1509 1513 1515 1517 1517 1518 1520 1523 1525 1528 1530 1532 1534 1536 1537 1539 1540 1541 1542 1543 1544 1544 1544 1545 1545 1546 1546 1546 1547 1547 1547 1548 1548 1548 1548 1548 1549
1508 1509 1515 1520 1515 1510 1506 1505 1504 1505 1507 1508 1509 1512 1515 1517 1517 1518 1520 1522 1525 1527 1530 1532 1534 1535 1537 1538 1539 1540 1541 1542 1543 1544 1545 1545 1545 1546 1546 1547 1547 1547 1547 1548 1548 1548 1549 1549 1549
1507 1508 1519 1520 1512 1507 1505 1504 1504 1505 1507 1508 1509 1512 1514 1516 1516 1518 1520 1522 1525 1527 1529 1531 1533 1534 1536 1537 1538 1540 1541 1542 1543 1544 1544 1545 1545 1546 1546 1547 1547 1547 1548 1548 1548 1549 1549 1549 1550
1506 1511 1515 1513 1511 1508 1505 1504 1504 1505 1506 1507 1508 1511 1513 1515 1516 1518 1520 1522 1524 1526 1528 1530 1532 1534 1535 1536 1538 1539 1540 1542 1543 1543 1544 1545 1545 1546 1547 1547 1547 1548 1548 1548 1548 1549 1549 1550 1550
1503 1508 1511 1511 1509 1506 1502 1502 1503 1503 1505 1507 1508 1509 1511 1513 1515 1517 1519 1521 1523 1525 1527 1529 1531 1533 1534 1535 1537 1538 1540 1541 1542 1543 1544 1544 1545 1546 1546 1547 1547 1548 1548 1548 1548 1549 1549 1550 1550
1502 1510 1511 1507 1505 1503 1501 1501 1502 1503 1504 1505 1506 1508 1509 1511 1513 1515 1518 1520 1522 1524 1525 1527 1529 1531 1533 1534 1536 1537 1539 1540 1541 1542 1543 1544 1545 1545 1546 1546 1547 1547 1548 1548 1548 1549 1549 1550 1550
1500 1508 1504 1501 1500 1500 1500 1500 1502 1503 1504 1505 1506 1506 1508 1509 1511 1512 1514 1516 1519 1521 1523 1525 1527 1529 1531 1533 1534 1536 1538 1539 1540 1541 1542 1543 1544 1544 1545 1546 1546 1547 1547 1548 1548 1548 1549 1549 1550
1498 1501 1499 1499 1498 1499 1499 1501 1501 1502 1504 1503 1503 1504 1506 1508 1510 1511 1512 1514 1516 1519 1521 1523 1525 1528 1530 1531 1533 1534 1536 1538 1539 1540 1541 1542 1543 1543 1544 1545 1545 1546 1547 1547 1548 1548 1549 1549 1550
1497 1497 1497 1497 1497 1498 1499 1500 1501 1501 1501 1502 1502 1503 1504 1506 1508 1509 1511 1513 1515 1517 1519 1521 1524 1525 1528 1529 1531 1532 1534 1536 1537 1539 1540 1541 1542 1542 1543 1544 1545 1545 1546 1547 1547 1548 1548 1549 1549
1496 1496 1496 1497 1497 1497 1499 1500 1500 1500 1500 1500 1501 1502 1503 1504 1506 1508 1510 1512 1513 1515 1517 1519 1522 1523 1525 1527 1529 1531 1533 1534 1536 1537 1539 1540 1541 1541 1542 1543 1544 1545 1545 1546 1547 1547 1548 1548 1549
1494 1495 1495 1496 1496 1496 1498 1499 1500 1498 1499 1499 1500 1500 1501 1502 1504 1506 1507 1509 1511 1513 1515 1517 1519 1521 1523 1525 1527 1529 1531 1533 1534 1536 1537 1538 1539 1540 1541 1542 1543 1544 1545 1545 1546 1546 1547 1547 1548
1493 1495 1495 1494 1494 1496 1498 1500 1498 1496 1497 1497 1498 1498 1499 1500 1502 1503 1504 1506 1508 1511 1513 1515 1517 1519 1521 1523 1524 1527 1529 1531 1532 1534 1535 1536 1538 1539 1540 1541 1542 1543 1544 1544 1545 1546 1546 1547 1547
1493 1497 1498 1493 1493 1494 1499 1498 1495 1495 1495 1495 1496 1496 1497 1498 1499 1501 1502 1504 1507 1508 1510 1512 1515 1517 1518 1520 1522 1524 1527 1528 1530 1532 1533 1534 1536 1537 1539 1540 1541 1542 1543 1543 1544 1545 1545 1546 1546
1496 1499 1497 1494 1492 1493 1496 1496 1493 1493 1493 1493 1493 1494 1494 1495 1496 1498 1500 1502 1504 1506 1508 1510 1512 1514 1516 1518 1520 1522 1524 1526 1528 1529 1531 1532 1534 1535 1537 1538 1539 1541 1541 1542 1543 1543 1544 1544 1545
1497 1498 1495 1494 1491 1493 1495 1494 1492 1491 1491 1491 1491 1491 1491 1491 1493 1495 1496 1499 1501 1503 1506 1508 1510 1512 1514 1516 1518 1520 1522 1524 1525 1527 1529 1530 1532 1533 1535 1536 1537 1539 1540 1541 1541 1542 1542 1543 1543
1490 1492 1492 1491 1489 1493 1494 1492 1490 1489 1489 1489 1489 1489 1488 1488 1491 1492 1494 1496 1498 1500 1503 1505 1507 1509 1511 1513 1515 1517 1519 1521 1523 1525 1527 1528 1530 1531 1532 1534 1535 1537 1538 1539 1539 1540 1541 1541 1542
1489 1491 1492 1491 1490 1492 1494 1491 1487 1487 1486 1485 1485 1485 1485 1486 1488 1489 1491 1493 1494 1497 1499 1502 1504 1507 1509 1511 1513 1516 1517 1519 1521 1523 1525 1526 1528 1529 1530 1532 1533 1534 1535 1536 1537 1538 1538 1539 1540
1488 1490 1491 1492 1490 1491 1493 1490 1486 1483 1483 1482 1482 1482 1483 1483 1484 1485 1487 1489 1491 1494 1496 1499 1501 1504 1507 1509 1511 1513 1515 1517 1520 1521 1522 1524 1526 1527 1529 1530 1531 1532 1533 1533 1534 1535 1536 1537 1538
1486 1485 1487 1490 1494 1497 1495 1496 1485 1482 1481 1480 1479 1479 1479 1480 1481 1482 1484 1486 1489 1491 1494 1497 1499 1502 1504 1507 1509 1510 1512 1514 1516 1518 1520 1522 1524 1525 1527 1528 1529 1530 1531 1531 1532 1533 1534 1535 1535
1484 1484 1486 1488 1493 1498 1498 1499 1486 1482 1481 1478 1477 1476 1476 1477 1478 1480 1482 1484 1487 1490 1492 1495 1497 1500 1502 1504 1506 1509 1510 1513 1515 1517 1519 1520 1522 1523 1525 1526 1527 1528 1529 1529 1530 1531 1532 1532 1533
1483 1485 1488 1493 1497 1500 1495 1498 1487 1483 1478 1476 1474 1473 1473 1474 1476 1478 1481 1483 1486 1488 1490 1492 1495 1497 1500 1502 1504 1506 1508 1510 1513 1514 1516 1518 1519 1521 1522 1523 1525 1525 1526 1527 1527 1528 1529 1530 1531
1485 1491 1498 1499 1504 1497 1491 1492 1485 1478 1474 1473 1472 1471 1471 1472 1474 1476 1478 1480 1483 1485 1487 1490 1492 1495 1497 1499 1501 1503 1506 1508 1510 1512 1514 1515 1516 1518 1519 1521 1522 1522 1523 1524 1525 1526 1527 1527 1528
1487 1489 1495 1498 1499 1496 1493 1491 1482 1475 1472 1471 1471 1471 1470 1471 1473 1474 1476 1478 1480 1483 1485 1487 1490 1492 1494 1496 1498 1501 1503 1505 1507 1509 1511 1512 1514 1515 1516 1518 1519 1520 1521 1521 1522 1522 1523 1524 1524
1486 1489 1489 1495 1500 1500 1492 1489 1480 1474 1472 1471 1471 1470 1470 1470 1471 1473 1475 1477 1479 1481 1483 1485 1487 1489 1492 1494 1496 1498 1500 1502 1504 1506 1508 1509 1511 1512 1513 1514 1515 1516 1517 1518 1518 1519 1519 1520 1520
1485 1487 1493 1495 1498 1494 1489 1488 1483 1475 1474 1472 1472 1470 1470 1470 1471 1472 1473 1475 1477 1479 1481 1483 1485 1487 1489 1491 1493 1495 1497 1499 1500 1502 1504 1506 1507 1508 1509 1510 1511 1512 1513 1514 1514 1514 1515 1515 1516
1488 1489 1490 1493 1493 1493 1492 1484 1475 1473 1472 1472 1471 1470 1470 1470 1470 1471 1472 1474 1476 1478 1479 1481 1482 1484 1486 1488 1490 1492 1494 1495 1497 1499 1500 1502 1503 1504 1505 1506 1507 1508 1509 1509 1510 1510 1510 1511 1511
1487 1488 1491 1494 1494 1494 1492 1486 1472 1472 1471 1471 1471 1470 1470 1470 1470 1471 1472 1473 1474 1475 1477 1478 1480 1481 1483 1485 1487 1489 1490 1492 1493 1495 1497 1498 1499 1500 1501 1502 1503 1503 1504 1505 1505 1505 1505 1506 1506